ABOUT US
vACC Philippines is a recognized member of the VATSIM network. We are dedicated to enhancing the online experience of both local and international virtual pilots. Mandated to provide professional and realistic air traffic operations.

vACC Philippines aims to provide the most realistic air traffic system simulation service that is close to the real thing as possible when flying on the VATSIM network.

VATSIM Logo VATSIM South East Asia Logo

METARS

RPLL 072100Z 09003KT 9999 FEW030 25/20 Q1013 NOSIG RMK A2991


RPVM 072100Z 00000KT 9999 FEW020 OVC090 24/23 Q1012 RMK A2988


RPMD 072100Z 04003KT 9999 FEW016 SCT290 23/23 Q1011 RMK A2985



AIRFIELDS COVERED

Manila Airport
Manila (RPLL)
Subic Bay Airport
Subic Bay (RPLB)
Mactan Airport
Mactan-Cebu (RPVM)
Clark Airport
Clark (RPLC)
Laoag Airport
Laoag (RPLI)

Davao Airport
Davao (RPMD)

Bacolod Airport
Bacolod (RPVB)

Zamboanga Airport
Zamboanga (RPMZ)

General Santos Airport
General Santos (RPMR)

Iloilo Airport
Iloilo (RPVI)

Kalibo Airport
Kalibo (RPVK)

Legazpi Airport
Legazpi (RPLP)

Puerto Princesa Airport
Puerto Princesa (RPVP)